Find Starlink 32663

NORAD ID: 62197 Int'l Des: 2024-229 Owner: SPXS Country: US Constellation: starlink operational
LEOCIRCULAR

Live-Position

3D-Globus wird geladen...

Über Starlink 32663

Beschreibung wird geladen...

Nächste Überflüge

Passes for default location (London). Set your location on the main map for personalized predictions.

Höhenverlauf

Loading altitude history...

Zweizeiliger Elementsatz

1 62197U 24229F 26121.95559839 .00017366 00000-0 63893-3 0 9994
2 62197 43.0018 330.2445 0001148 281.8419 78.2304 15.27588133 78700
Epoch: 1. Mai 2026 • Age: 6 hours

Aktueller Status

Höhe 492.7 km
Geschwindigkeit 7.62 km/s
Subsatellitenpunkt -36.15°S, 16.75°W
Startdatum 4. Dez. 2024
Alter 1.4 years
Typ internet

Technische Details

Klassifizierung Payload
Masse 730.00 kg
Trockenmasse 700.00 kg
Gesamtmasse 730.00 kg
Länge 0.30 m
Durchmesser 4.10 m
Spannweite 29.00 m
Form Box + pan
Hersteller SPXS
Bus-Typ Starlink V2M
Phasenstatus In Orbit
Besitzer/Staat SPXS/US

Most Searched